Theta_e
289 288 287 287 286 286 286 286 286 286 286 286 286 286 286 286 286 286 285 286 285 285 285 285 285 285 285 285 285 284 284 284 284 284 284 284 284 284 284 284 284 284 284 284 283 283 283 283 283 283 283 283 283 283 283 283 283 283 283 283 283 282
289 288 287 287 286 286 286 286 286 286 286 286 286 285 285 285 285 285 285 285 285 285 285 285 285 285 285 285 284 284 284 284 284 284 284 284 284 284 284 284 284 284 284 284 283 283 283 283 283 283 283 283 282 282 282 283 283 283 283 283 283 282
289 288 287 287 286 286 286 286 286 286 286 286 286 286 285 285 285 286 286 285 285 285 285 285 285 285 285 284 284 284 284 284 284 284 284 284 284 284 284 284 284 284 283 283 283 283 283 282 282 282 282 282 282 282 282 282 282 282 282 282 282 282
289 288 287 287 286 286 286 286 286 286 286 286 286 286 286 286 285 286 286 285 285 285 285 285 285 285 285 285 285 285 285 285 285 285 285 284 284 284 284 284 283 283 283 283 282 282 282 282 281 281 281 281 281 281 281 281 281 281 281 281 281 281
290 289 287 286 287 286 286 287 286 286 286 286 286 286 286 286 286 286 286 286 285 285 285 285 285 285 285 285 286 285 286 286 285 285 285 285 284 284 284 283 283 283 282 282 282 281 281 281 281 280 280 280 280 280 280 280 280 280 280 280 279 279
289 288 287 287 287 287 287 287 286 286 286 286 286 286 286 286 286 286 286 286 286 286 286 286 286 286 286 286 286 286 286 286 286 285 285 285 284 284 283 283 282 282 282 281 281 280 280 280 280 280 279 279 279 279 279 279 279 278 278 278 278 277
289 289 288 287 287 287 287 287 287 287 286 286 286 286 286 286 286 286 286 286 286 286 286 286 286 286 286 286 286 286 286 286 286 285 285 284 283 283 283 282 282 281 281 280 280 280 279 279 279 279 279 278 278 278 278 277 277 277 277 276 276 276
288 289 289 288 287 287 287 287 287 286 286 286 286 286 286 286 286 286 286 286 286 286 286 286 286 286 286 285 285 285 285 285 285 285 284 283 283 282 282 282 281 281 281 280 280 280 279 279 279 278 278 278 278 277 277 277 276 276 276 275 275 275
288 288 289 289 288 288 288 287 287 286 286 286 286 286 286 286 286 286 286 286 286 286 286 286 286 286 285 285 285 285 285 285 284 284 283 282 282 282 282 282 281 281 281 280 280 279 279 279 278 278 278 277 277 277 276 276 275 275 275 275 275 275
289 288 289 289 289 289 288 288 287 287 286 286 286 286 286 286 286 286 286 286 286 286 286 286 285 285 285 285 285 284 284 284 284 283 282 282 281 282 282 282 282 281 281 280 279 279 278 278 278 277 277 277 277 276 276 275 275 275 275 275 274 274
289 288 289 289 290 290 289 289 288 287 286 286 286 286 286 286 286 286 286 286 286 286 286 285 285 285 284 284 284 284 284 283 283 282 282 281 282 282 282 282 282 281 280 280 279 279 278 278 277 277 277 276 276 275 275 274 274 274 274 274 274 274
288 288 288 288 289 290 289 289 289 288 287 287 287 287 287 287 286 286 286 286 286 286 286 285 285 284 284 284 284 284 283 283 282 282 282 282 282 282 282 282 281 281 280 280 279 279 278 278 277 277 276 275 275 274 274 274 273 273 273 273 273 273
288 288 288 288 289 289 289 290 290 289 288 287 287 287 287 287 287 286 286 286 286 286 286 285 285 284 284 284 284 283 283 282 282 281 281 281 281 281 281 281 281 281 280 279 279 278 278 277 277 276 275 275 274 274 273 273 273 272 272 272 272 272
288 287 287 288 288 289 289 290 289 288 288 288 288 288 287 287 287 287 286 286 286 286 286 285 285 284 284 284 283 283 282 282 281 281 281 281 281 281 281 281 281 280 280 279 279 278 277 277 276 276 275 274 274 274 273 272 273 272 272 272 272 271
288 288 288 288 289 289 289 289 289 289 290 290 290 288 288 287 287 287 286 286 286 286 286 285 285 284 284 283 283 282 282 281 281 280 280 280 281 281 281 280 280 280 279 279 278 278 277 276 276 275 274 274 274 273 272 272 273 272 272 272 271 270
288 288 289 289 289 290 290 289 289 290 291 291 290 289 288 288 287 287 287 286 286 286 286 285 285 284 284 283 282 282 281 281 280 280 280 280 281 280 280 280 280 279 279 278 278 277 276 276 275 275 274 273 273 273 272 272 272 271 271 270 270 269
288 288 289 290 290 290 289 289 289 289 289 289 289 288 288 288 287 287 287 286 286 286 285 285 284 284 283 282 282 281 281 281 280 280 280 280 280 280 280 279 279 279 278 278 277 276 276 275 275 274 273 273 273 272 271 271 271 270 270 269 269 269
291 291 291 291 290 290 290 290 289 289 288 288 288 288 288 288 287 287 287 286 286 285 285 285 284 283 283 282 281 281 281 280 279 279 280 280 280 279 279 279 279 278 277 277 276 276 275 275 274 273 273 273 272 271 270 270 269 269 269 269 268 268
293 292 292 291 291 290 290 290 289 288 288 288 287 287 287 287 286 287 286 286 286 285 285 284 284 283 282 281 281 281 280 280 279 280 280 280 279 279 279 278 278 277 277 276 275 275 275 274 273 273 272 272 272 271 269 269 269 269 269 269 269 269
292 292 292 291 291 291 291 290 289 289 288 288 287 287 286 286 286 286 286 286 286 285 284 284 283 282 281 281 281 281 280 279 279 279 279 279 279 278 278 277 277 277 276 275 275 274 274 274 273 272 272 272 272 271 269 268 269 269 269 269 269 269
291 291 291 291 291 291 290 290 290 289 289 289 288 287 286 286 287 286 286 286 285 285 284 283 282 281 281 281 281 280 279 279 279 279 278 278 277 277 277 277 276 276 275 275 274 274 273 273 273 272 272 272 272 270 269 269 269 269 269 269 269 269
290 290 290 290 290 290 289 289 289 289 289 288 287 287 287 287 288 287 286 285 284 284 283 281 281 281 281 280 280 279 279 279 278 278 277 277 276 276 276 276 275 275 275 274 274 273 273 273 272 272 271 272 271 269 269 269 269 269 269 269 269 270
290 290 290 290 290 289 289 289 289 288 288 288 287 287 288 288 287 286 285 285 283 282 282 281 280 281 280 280 279 278 278 278 277 277 276 276 275 275 275 275 274 274 274 274 273 273 272 272 272 271 271 271 270 268 269 270 269 269 270 270 271 271
288 289 289 289 289 289 289 289 289 288 288 287 287 288 288 287 287 286 285 284 282 281 281 280 280 280 279 279 278 278 277 276 276 275 275 275 275 274 274 274 274 274 274 273 272 272 272 271 271 270 271 271 269 268 269 270 270 271 271 272 272 272
288 289 289 289 289 289 289 288 288 287 287 287 288 288 287 286 286 285 283 282 281 281 280 280 279 279 278 278 277 276 276 275 275 275 274 274 274 274 273 273 273 273 273 273 272 271 271 271 270 270 270 270 268 268 270 270 271 272 272 272 272 272
288 289 289 289 288 289 288 288 287 287 286 287 287 286 286 285 284 283 282 281 280 280 279 279 278 278 277 277 276 275 275 275 274 274 274 273 273 273 273 273 272 272 272 272 272 271 271 270 269 269 268 268 268 269 270 270 271 272 272 272 272 272
288 288 288 288 288 288 288 287 287 286 287 287 286 286 285 284 283 282 281 280 280 279 279 278 277 277 276 276 275 275 274 274 274 273 273 273 273 272 272 272 271 271 271 271 271 271 270 268 267 267 267 267 268 269 270 270 271 272 272 272 272 272
287 287 287 288 287 287 287 287 286 286 287 287 286 285 284 283 282 282 281 280 279 278 278 277 277 276 276 275 275 274 274 274 273 273 273 272 272 271 271 271 270 270 270 269 270 269 267 266 266 267 267 268 268 269 270 270 271 271 272 272 272 272
284 285 285 286 287 287 286 286 286 286 286 285 285 284 283 282 282 281 280 279 279 278 277 277 276 276 275 275 274 274 273 273 273 272 272 272 271 270 270 270 270 269 268 268 267 266 265 266 266 267 268 268 269 270 271 271 271 271 272 272 272 272
284 284 285 286 287 287 285 285 285 284 284 284 284 283 282 281 281 280 279 279 278 277 277 276 275 275 275 274 274 273 273 272 272 272 271 271 270 270 270 269 268 268 267 266 266 266 266 267 267 268 269 270 270 271 271 271 271 272 272 272 272 272
284 284 284 286 287 286 284 284 284 283 283 283 283 282 281 280 280 279 278 278 277 276 276 275 275 274 274 273 273 272 272 271 271 271 271 270 270 270 269 268 267 267 267 267 266 267 267 268 268 269 270 270 271 271 271 271 272 272 272 271 271 270
284 284 284 286 285 284 283 284 283 282 283 282 281 281 280 280 278 277 277 276 276 275 275 275 274 273 273 272 272 271 271 271 270 270 270 270 269 269 268 267 267 267 268 268 268 268 268 268 269 270 270 270 270 271 271 272 272 271 270 270 269 268
284 283 284 285 284 283 283 282 282 282 282 280 279 279 279 278 277 277 276 276 275 275 275 274 273 272 271 271 270 270 270 270 269 269 269 268 267 267 266 266 267 267 268 268 269 269 268 269 269 269 269 270 270 271 271 271 270 269 269 268 267 265
284 284 285 284 283 282 281 281 281 281 280 278 277 277 277 277 276 276 276 275 275 274 274 273 272 271 270 270 269 269 268 268 268 269 269 268 267 267 266 267 267 267 267 267 268 268 268 268 268 268 269 269 270 270 270 269 269 268 267 266 265 264
284 284 284 283 282 281 280 280 279 279 277 276 275 275 275 275 275 275 275 275 274 274 273 272 271 270 269 269 268 267 267 266 266 266 267 268 268 268 267 267 267 267 266 266 266 267 267 267 267 268 268 269 270 269 269 268 267 266 265 265 264 263
283 282 282 281 280 279 278 278 278 277 275 274 273 273 273 274 274 274 274 273 273 272 271 271 270 269 268 268 267 266 266 266 265 265 264 265 266 267 268 268 267 266 265 265 265 266 266 266 267 267 268 269 269 268 267 267 266 266 265 265 263 262
280 280 279 279 278 277 276 276 276 275 273 273 273 273 273 273 273 272 272 272 271 271 270 269 268 268 267 266 266 265 265 265 265 264 264 263 262 262 264 267 268 267 265 264 264 264 264 265 266 267 268 268 267 266 266 266 266 266 266 265 263 262
278 278 277 276 275 275 274 274 274 274 273 272 272 272 272 272 272 272 271 270 270 269 268 267 267 266 266 265 265 264 264 264 264 263 263 262 261 260 261 264 267 268 267 265 263 263 264 264 265 266 267 267 265 265 265 265 265 265 265 264 263 262
Wind_Speed
17 18 18 17 18 18 19 19 20 20 20 19 20 20 19 19 18 17 16 15 15 15 14 14 13 13 13 12 12 10 10 11 11 10 10 10 10 10 11 12 13 14 15 15 16 17 17 18 18 19 19 20 20 20 21 21 21 22 22 22 23 23
18 18 19 19 19 19 19 20 20 21 21 20 20 20 19 18 17 17 16 14 14 14 14 13 12 11 11 11 10 9 9 9 8 7 7 7 7 8 9 10 11 13 14 15 16 16 17 17 18 18 19 19 20 20 20 21 21 22 23 23 23 23
17 18 19 20 20 20 20 21 21 21 21 21 21 20 19 19 17 16 15 14 14 13 12 12 10 10 9 9 8 7 7 6 5 5 5 5 6 7 8 9 11 12 13 14 16 17 17 18 18 19 19 20 20 20 20 21 22 22 23 24 24 24
17 19 20 21 21 22 22 21 21 21 22 21 21 20 20 19 17 16 15 15 13 12 11 11 10 9 8 7 7 6 6 5 4 4 4 5 6 7 8 10 11 12 14 15 16 17 17 18 18 19 19 19 20 20 20 21 22 23 24 24 25 25
19 21 22 23 24 24 23 23 22 23 23 22 22 21 20 18 17 16 15 14 13 12 11 10 9 9 7 7 6 6 6 5 4 4 5 6 7 8 9 11 12 13 14 15 16 17 17 18 18 18 18 18 19 19 20 20 21 22 23 23 24 25
19 20 21 23 24 25 25 24 24 24 24 23 23 22 21 19 18 17 16 14 14 12 11 10 9 8 7 7 6 5 5 4 4 5 6 7 8 9 10 11 13 14 15 16 17 17 18 18 19 18 18 18 18 19 19 20 20 21 21 22 23 23
17 19 21 23 25 26 26 26 25 25 25 25 24 23 22 20 19 18 16 15 14 13 11 10 10 9 8 7 5 3 2 2 3 5 6 7 8 10 11 12 14 15 16 17 18 19 19 19 20 19 19 19 19 19 20 20 21 21 21 21 21 21
16 19 22 23 25 26 27 27 27 27 26 26 25 24 23 21 20 19 18 16 15 14 13 12 12 10 8 6 5 3 2 1 3 5 7 8 9 11 12 13 15 16 17 18 19 20 20 20 20 20 20 20 20 20 21 21 21 21 21 22 21 21
14 18 20 22 24 25 26 27 28 28 27 27 26 25 23 22 21 20 19 18 16 15 15 15 13 11 9 8 7 6 5 4 4 5 7 8 9 10 12 14 15 17 18 19 19 20 20 20 20 20 20 20 20 21 21 21 22 22 22 23 23 22
12 16 19 21 23 24 26 28 29 29 29 28 27 25 24 23 22 22 20 19 18 18 18 16 14 13 12 11 10 9 8 7 7 7 7 9 10 11 13 15 16 18 19 20 20 20 21 21 20 20 20 20 21 21 21 22 22 23 23 23 23 23
10 15 18 20 22 25 27 29 30 30 31 31 29 28 26 24 23 23 22 22 21 21 20 18 17 16 15 14 13 12 11 10 8 8 9 10 11 12 14 16 18 19 20 21 22 22 22 21 20 20 20 20 20 20 21 22 22 23 23 23 23 23
11 14 17 20 24 27 28 30 32 33 34 34 33 31 28 26 25 25 24 24 24 23 22 21 20 19 18 17 16 15 14 12 10 10 11 11 12 14 15 17 18 20 21 22 23 23 23 22 21 20 20 18 18 19 20 22 22 22 23 24 24 23
11 14 17 22 26 28 29 31 33 33 34 34 34 32 30 28 28 27 26 27 26 25 24 24 23 22 21 20 18 17 15 13 12 12 12 12 13 14 16 18 19 21 22 23 23 24 24 23 22 20 20 18 17 17 18 20 21 21 21 22 23 23
11 15 19 22 25 27 29 31 30 30 31 32 33 33 31 30 30 29 28 28 28 27 27 26 26 25 24 22 20 18 16 14 13 13 13 13 14 16 17 18 20 21 22 23 24 24 24 23 22 20 19 18 17 16 16 17 18 20 20 19 20 22
13 17 20 22 24 26 29 29 29 29 31 32 32 32 31 31 31 30 29 29 29 29 29 28 27 26 26 24 21 19 17 15 14 13 14 14 16 17 18 19 21 22 23 24 24 25 25 24 22 20 19 18 17 16 15 16 17 18 20 20 21 23
14 17 19 20 22 23 24 26 27 29 30 29 29 30 31 31 31 31 30 30 31 30 29 28 28 27 27 25 22 19 17 16 15 14 15 16 17 18 19 20 21 22 23 24 24 25 25 24 22 21 20 18 18 16 14 16 18 20 23 23 22 22
14 15 16 17 17 17 19 21 23 25 25 25 26 27 28 30 30 31 31 31 31 30 29 28 28 28 28 25 22 20 18 16 15 15 16 17 17 18 19 21 22 23 23 24 24 25 25 24 21 20 19 18 18 16 15 17 20 21 23 21 19 19
14 13 12 12 13 14 16 17 18 21 22 23 23 24 25 27 29 29 30 30 30 30 29 29 29 29 28 25 22 19 18 16 15 15 16 17 18 19 20 21 23 24 24 24 25 25 25 24 21 20 19 18 17 16 16 19 20 19 19 19 17 17
11 10 10 10 12 13 14 14 15 17 19 20 21 22 22 24 26 27 28 28 29 29 28 29 29 29 27 24 21 19 18 16 16 16 17 18 19 20 21 22 23 24 25 25 25 26 27 25 22 20 19 18 17 16 17 18 19 17 18 19 18 18
10 10 11 11 11 12 11 12 13 14 16 18 20 21 21 22 24 26 26 27 27 27 28 29 29 27 25 22 20 18 17 16 16 17 18 18 20 21 21 23 24 24 25 25 25 25 26 26 23 21 19 18 16 16 16 18 19 19 20 21 19 17
12 12 12 12 13 13 12 12 13 13 15 16 17 19 21 22 23 24 24 25 26 26 27 27 26 25 22 20 19 17 16 16 16 17 18 18 19 21 22 23 25 25 25 24 25 25 25 25 24 21 19 18 16 15 16 17 19 20 21 20 19 20
14 15 16 16 16 15 14 14 14 15 15 15 17 18 19 19 20 20 21 22 23 24 25 25 24 22 21 19 18 16 16 16 16 17 18 18 19 21 22 23 24 25 25 24 24 24 23 24 24 22 19 18 16 15 15 17 19 21 22 22 24 28
18 19 19 19 18 17 17 17 17 17 17 17 18 19 18 18 18 19 19 20 22 23 24 24 22 21 19 18 17 16 16 16 16 17 17 18 20 21 22 23 24 25 26 25 24 24 23 23 24 22 20 18 17 15 16 17 19 21 24 27 28 30
19 20 21 20 20 20 20 20 20 20 20 20 20 19 19 18 18 18 19 20 22 23 23 22 21 19 18 17 16 16 16 15 16 17 17 18 20 21 22 23 23 25 27 26 25 24 23 22 22 21 20 19 18 16 16 18 19 20 23 27 28 27
20 22 23 22 23 23 22 22 22 22 21 22 21 20 19 19 18 19 20 21 22 23 22 21 20 18 17 16 16 15 15 15 16 17 17 18 20 21 22 23 23 25 27 27 26 24 23 22 21 20 21 21 18 17 17 18 19 20 21 24 26 28
23 24 25 24 25 25 24 25 25 24 24 24 22 20 20 19 19 20 21 22 22 22 22 20 19 17 16 16 16 16 16 16 16 17 17 18 19 21 22 23 23 24 26 28 28 26 24 23 22 21 21 21 18 19 19 19 20 21 22 24 26 27
26 26 26 26 26 27 27 27 26 26 26 25 23 22 21 20 20 21 22 23 23 22 21 19 18 17 16 16 17 17 16 17 17 17 18 18 19 19 21 22 22 23 24 26 27 27 25 22 21 21 21 20 19 20 20 20 21 22 22 24 25 27
25 24 25 26 27 29 29 29 28 29 29 27 24 23 22 21 22 22 23 23 22 21 20 19 18 17 18 17 18 18 17 17 17 18 18 18 18 19 20 21 21 22 23 23 25 25 23 21 21 22 22 21 21 21 21 22 23 22 22 24 26 27
23 24 25 27 29 30 31 31 30 31 29 26 24 23 22 22 23 24 24 24 23 22 21 20 19 19 18 18 18 18 18 18 18 18 18 17 17 18 19 20 21 21 21 22 22 21 19 20 22 23 23 22 22 23 23 23 24 24 25 26 27 27
23 25 27 29 30 31 31 32 31 31 29 27 25 24 24 24 25 25 25 24 23 23 22 21 20 20 19 19 19 19 18 18 18 18 18 17 16 18 19 19 20 19 19 20 20 20 22 23 22 21 20 20 22 23 23 23 24 26 26 26 26 27
25 26 27 29 29 29 30 32 31 31 30 29 28 27 26 26 26 26 25 24 24 24 22 21 21 20 20 19 19 19 19 18 17 18 18 16 16 17 18 19 19 19 19 20 21 22 24 24 21 18 18 19 20 21 22 22 24 24 25 24 25 25
26 27 28 28 27 27 28 30 31 31 31 31 30 29 28 28 27 26 26 26 25 24 23 21 21 20 20 19 19 19 18 17 17 17 17 17 16 16 16 18 19 20 20 22 23 21 20 21 20 18 18 19 19 20 20 21 21 21 22 23 22 22
25 26 28 28 27 26 27 29 30 32 33 33 31 30 29 29 28 27 27 27 25 23 22 21 20 20 19 19 18 18 18 18 17 16 15 15 16 16 15 16 18 19 18 20 21 19 18 18 18 17 17 18 18 18 18 18 18 19 19 19 18 19
25 27 29 28 26 26 27 28 30 32 34 33 31 30 29 28 27 27 26 25 23 22 20 20 20 19 19 18 18 18 18 18 18 16 14 14 15 16 16 16 17 17 15 15 15 15 16 15 15 15 16 16 16 16 15 15 16 17 17 15 15 16
26 27 27 26 25 26 27 28 30 32 33 32 30 29 28 27 25 24 23 21 20 20 20 20 20 19 19 18 17 16 16 17 17 17 16 14 14 15 16 15 14 13 12 12 12 13 14 14 13 13 14 14 14 13 13 14 16 17 15 13 14 16
24 23 23 24 24 24 26 27 29 31 31 30 28 26 25 24 22 21 20 19 19 19 19 19 19 18 17 16 15 16 16 16 16 16 17 16 15 14 13 12 12 11 11 12 12 11 11 12 12 11 12 12 11 11 12 14 17 16 12 12 14 17
20 20 21 21 21 22 24 26 27 28 28 27 25 23 23 21 20 19 19 18 18 19 19 18 18 16 16 15 15 15 16 16 16 16 16 15 15 14 14 13 12 12 12 13 11 9 9 10 10 11 10 9 9 10 12 15 17 15 14 15 16 16
16 17 18 18 19 21 22 23 23 23 24 23 23 22 21 20 19 18 19 19 20 20 19 18 16 15 14 14 14 15 15 16 16 16 16 15 15 15 17 17 15 14 14 13 10 7 7 7 9 9 8 7 8 10 12 13 14 15 16 18 18 18
Wind_Direction
188 187 183 180 177 172 168 165 163 160 159 157 153 150 146 144 143 141 139 137 131 125 121 116 111 107 102 97 93 89 83 76 71 64 55 48 37 27 19 11 7 4 360 358 356 353 351 349 347 345 344 344 343 343 343 343 342 341 342 342 343 343
190 186 184 184 181 178 174 171 169 166 163 160 157 153 150 148 148 146 142 139 134 127 121 115 111 106 99 95 91 85 80 73 67 58 47 37 24 12 4 358 355 353 351 350 348 346 344 342 341 339 339 340 339 340 339 339 339 338 338 338 338 339
188 185 187 188 184 182 180 177 175 171 169 167 164 161 157 154 153 151 148 142 137 132 125 121 116 110 105 103 100 94 88 81 69 56 37 20 6 357 351 347 346 345 345 344 344 343 343 341 341 340 340 340 340 340 340 339 338 338 337 336 336 337
183 185 188 189 187 186 184 182 180 177 176 175 173 170 167 163 161 159 155 148 143 139 134 131 127 123 120 117 112 103 95 85 71 56 32 12 360 351 346 344 344 344 343 344 344 343 343 342 342 341 340 340 339 338 338 338 338 337 336 335 335 335
185 187 189 189 190 189 188 186 185 184 183 181 181 179 175 172 169 166 162 156 152 150 147 146 143 138 134 129 125 117 106 92 75 56 28 12 1 352 348 346 345 345 344 343 343 342 342 341 341 340 340 338 337 336 336 337 335 335 334 333 333 333
188 190 190 191 192 192 192 191 190 189 189 188 187 185 181 177 175 172 170 166 163 163 163 162 160 158 157 153 145 132 113 85 57 37 14 4 355 348 346 345 344 344 344 343 342 342 342 341 341 341 340 339 338 336 335 335 334 333 332 330 330 329
190 193 194 195 195 195 196 195 196 195 194 193 192 189 185 182 181 179 178 177 176 176 178 180 182 181 180 176 167 154 124 60 24 10 359 351 346 345 346 346 345 345 344 343 342 341 341 341 340 341 340 339 338 336 334 334 332 331 329 327 326 324
196 197 198 198 197 197 198 198 199 199 199 199 197 194 189 186 186 185 185 187 188 188 192 196 197 196 197 199 202 210 233 304 333 341 342 340 340 342 344 344 343 342 341 340 339 338 338 337 337 338 338 337 336 334 333 332 330 328 326 325 323 322
200 199 199 199 199 199 200 201 203 203 203 203 202 200 196 192 190 190 192 194 197 201 206 207 207 209 212 218 225 236 251 271 295 314 325 329 333 336 339 340 339 337 336 335 335 334 334 334 335 337 337 335 334 334 332 330 328 325 323 323 323 322
201 198 198 199 199 201 203 205 207 208 207 207 206 204 202 198 196 195 197 201 205 210 214 215 216 218 223 229 234 243 251 262 278 296 308 317 324 329 334 336 335 334 333 333 332 332 331 332 335 337 336 336 335 334 330 327 325 324 322 322 321 321
198 194 197 198 198 203 206 207 209 210 211 211 210 209 207 205 203 201 203 207 212 216 219 219 221 223 228 233 237 243 251 257 270 286 299 309 318 326 330 331 331 331 331 330 330 330 330 331 335 337 337 337 335 332 328 325 324 323 321 320 319 319
200 195 197 199 202 206 207 208 210 211 212 212 212 213 212 210 209 209 210 214 218 221 222 222 224 226 230 234 238 244 250 256 267 282 294 305 315 323 326 327 328 328 327 328 327 327 327 329 334 337 337 337 334 328 325 323 322 321 319 317 317 317
203 199 201 205 208 209 209 211 212 213 213 213 213 215 215 214 214 215 216 219 222 223 225 225 225 228 231 234 238 243 248 256 268 279 292 305 313 318 321 323 324 324 324 324 324 324 325 327 333 336 335 334 332 327 323 318 316 315 313 312 313 313
205 205 208 211 213 213 214 214 214 213 214 214 216 218 216 216 218 219 220 223 224 226 227 227 226 228 231 234 238 242 248 257 267 280 293 304 310 313 318 320 320 321 321 321 322 322 322 326 331 333 332 331 330 327 320 311 308 308 306 304 304 305
212 213 215 216 216 218 219 217 215 217 219 220 221 220 217 218 220 221 223 225 227 228 228 228 227 228 230 233 236 241 248 258 269 282 293 300 306 310 315 317 317 318 318 318 319 319 319 324 329 331 331 330 327 325 318 307 300 298 297 297 298 300
215 218 219 221 222 224 224 222 222 225 225 224 223 220 219 220 221 223 226 227 229 229 229 229 228 228 230 232 235 241 249 259 270 282 291 299 305 308 311 314 314 314 315 315 316 316 317 322 328 331 331 328 325 324 316 301 294 293 294 296 299 301
212 216 218 221 224 223 223 224 225 227 225 224 224 222 221 223 223 226 228 228 230 230 230 230 228 227 229 230 234 241 250 261 272 282 291 298 303 307 310 312 312 312 313 314 315 315 316 322 329 331 329 327 326 323 309 296 294 295 297 298 297 297
207 209 208 208 210 211 216 219 220 222 223 224 225 225 225 225 226 228 229 230 232 232 232 231 228 226 227 229 234 242 251 262 273 283 292 298 302 305 308 309 309 311 312 313 315 316 317 322 330 332 328 327 326 318 306 300 299 297 295 295 292 291
199 196 190 188 192 197 203 207 211 216 219 221 224 225 225 226 228 231 232 233 235 235 233 231 227 225 226 229 235 244 253 264 275 285 293 297 301 303 305 307 308 310 312 314 317 317 318 322 330 333 329 327 325 318 308 302 299 293 290 292 291 290
186 184 181 181 186 191 192 195 202 209 214 219 223 224 224 227 231 234 235 237 237 235 232 228 225 224 226 230 238 247 258 269 279 288 292 296 300 302 304 306 308 309 311 313 316 317 318 322 329 332 328 325 325 319 309 302 298 293 293 295 292 288
183 182 183 186 189 187 183 187 197 204 212 219 222 222 226 231 238 240 239 240 238 233 229 225 223 224 228 234 243 252 263 274 281 287 292 295 298 301 304 306 306 307 311 314 315 316 318 321 326 329 327 325 326 321 308 301 298 296 296 296 293 293
189 187 190 195 195 189 187 193 201 207 215 220 219 223 231 240 244 243 240 239 234 228 225 222 222 225 231 238 248 258 268 276 282 286 290 293 297 300 302 304 305 307 311 313 314 315 320 323 325 327 327 326 327 321 307 299 296 296 296 297 298 301
197 196 199 201 198 196 200 203 207 212 217 218 219 227 238 244 243 240 235 232 227 222 221 220 222 228 235 243 253 263 269 276 281 285 289 293 297 299 301 303 306 308 310 312 313 316 322 325 325 326 328 329 328 318 304 297 295 295 297 299 300 302
202 203 207 207 203 206 210 210 212 216 216 217 225 234 239 239 237 234 229 224 220 218 218 220 224 230 239 248 256 263 269 275 279 284 289 293 296 299 300 304 308 308 308 311 313 317 323 327 327 326 326 331 329 315 301 297 295 295 298 299 299 299
208 210 213 214 213 215 216 214 216 217 216 222 231 235 235 234 232 227 222 219 218 218 219 222 227 234 242 251 259 263 269 274 278 283 288 291 294 298 301 305 308 308 309 311 313 318 323 325 326 326 330 336 330 312 302 300 297 297 298 297 296 297
213 217 219 220 220 220 220 219 219 218 220 228 233 231 230 229 225 220 219 218 217 218 221 224 231 239 246 253 259 263 267 272 276 281 285 289 294 298 301 304 307 308 309 310 313 317 322 325 328 332 336 337 324 309 306 304 301 301 300 297 296 297
217 222 225 225 224 224 224 223 220 220 226 231 230 227 226 224 220 218 218 218 218 219 224 228 234 242 248 252 257 261 265 270 274 279 283 288 293 297 300 303 305 306 307 309 312 316 321 326 331 334 333 327 315 309 309 306 304 305 304 301 300 300
222 226 230 231 229 227 227 225 223 224 230 232 227 224 224 220 218 218 217 218 219 222 226 232 237 242 247 251 256 260 264 268 272 277 282 287 291 294 296 298 301 303 304 307 311 316 320 325 330 331 330 326 321 317 315 312 311 310 307 305 304 303
223 226 230 233 234 231 229 228 226 226 230 230 225 222 221 218 218 218 217 218 220 224 228 233 237 241 245 250 254 258 262 266 270 275 279 284 288 291 293 295 297 299 302 306 311 314 316 319 323 324 326 327 324 320 319 317 315 313 311 310 309 309
227 228 230 234 237 235 231 230 228 226 226 226 223 220 217 217 218 218 219 220 222 226 230 234 237 241 245 248 253 256 259 263 268 272 276 281 285 287 289 292 294 296 300 304 308 310 310 312 315 317 318 320 319 318 318 316 315 316 316 316 316 316
231 232 234 239 241 239 235 233 230 226 224 224 222 218 215 216 217 217 218 220 222 226 230 234 238 242 244 247 251 255 258 262 266 270 274 278 280 284 289 292 294 298 303 303 303 304 303 303 306 311 312 312 313 314 314 313 315 318 319 319 320 319
236 237 240 244 245 241 238 235 230 225 223 222 220 216 215 215 214 214 217 220 223 226 230 234 239 243 245 248 252 255 259 262 265 269 276 281 283 286 288 288 287 291 296 296 296 297 295 293 299 306 309 310 312 313 312 313 316 319 320 323 324 320
237 238 242 246 245 241 239 237 230 224 222 220 217 215 215 214 213 213 217 221 224 227 231 236 240 244 247 250 254 259 263 264 264 265 272 278 282 281 277 272 273 276 279 281 285 288 287 288 295 304 308 310 312 312 314 317 320 324 328 330 326 321
238 240 243 245 243 240 238 235 230 224 220 217 214 213 214 214 215 217 220 223 227 231 234 238 241 244 247 251 256 261 267 271 273 272 269 269 273 276 276 274 274 275 275 277 281 284 286 290 297 302 307 310 311 313 318 320 321 326 332 332 327 328
243 244 246 245 243 240 237 233 229 224 218 214 212 211 213 216 219 222 225 229 232 235 236 239 242 245 249 253 259 263 268 274 280 284 285 281 278 280 283 284 280 274 271 272 273 277 286 295 300 303 307 310 311 317 323 319 314 318 327 334 336 340
248 249 248 246 243 239 234 231 228 223 217 213 211 212 215 219 222 227 232 235 238 239 240 241 244 247 252 257 262 267 270 274 279 286 292 294 294 292 288 284 279 275 275 278 278 278 286 298 303 306 308 310 315 324 324 311 305 310 324 342 348 347
251 250 249 246 241 236 231 229 227 222 216 212 212 214 218 222 226 230 235 238 240 241 242 242 245 249 255 261 265 269 273 275 277 280 285 290 294 294 290 285 280 280 286 294 295 289 288 297 305 307 307 314 328 330 315 305 308 320 335 345 349 346
249 247 245 241 236 231 227 226 224 219 214 212 213 216 220 225 230 234 237 239 240 241 242 243 245 250 255 262 267 270 272 274 277 279 281 283 284 285 288 289 288 285 287 292 292 284 276 289 306 310 309 318 330 324 312 313 326 337 340 341 343 342